| time (UTC) | temp F | wind direction | speed MPH | gust MPH | rain 1hr in | rain 24hr in | rain mn in | humidity % | barometer mb |
| 20260507133004 | 65 | 127 | 1.0 | 4.0 | 0.06 | 0.32 | 0.32 | 79 | 1013.0 |
| 20260507132503 | 65 | 225 | 0.0 | 2.0 | 0.06 | 0.32 | 0.32 | 75 | 1012.9 |
| 20260507132003 | 64 | 273 | 0.0 | 2.0 | 0.06 | 0.32 | 0.32 | 74 | 1012.9 |
| 20260507131503 | 62 | 0 | 0.0 | 0.0 | 0.06 | 0.32 | 0.32 | 72 | 1013.0 |
| 20260507131004 | 62 | 0 | 0.0 | 0.0 | 0.06 | 0.32 | 0.32 | 72 | 1013.0 |
| 20260507130503 | 62 | 91 | 0.0 | 3.0 | 0.06 | 0.32 | 0.32 | 74 | 1013.2 |
| 20260507130026 | 62 | 82 | 0.0 | 3.0 | 0.07 | 0.32 | 0.32 | 72 | 1013.2 |
| 20260507125503 | 63 | 33 | 0.0 | 4.0 | 0.07 | 0.32 | 0.32 | 71 | 1013.1 |
| 20260507125004 | 64 | 354 | 1.0 | 4.0 | 0.06 | 0.31 | 0.31 | 68 | 1013.2 |
| 20260507124503 | 64 | 258 | 0.0 | 3.0 | 0.02 | 0.27 | 0.27 | 65 | 1013.1 |
| 20260507124004 | 64 | 259 | 0.0 | 3.0 | 0.02 | 0.26 | 0.26 | 64 | 1013.2 |
| 20260507123503 | 64 | 260 | 1.0 | 3.0 | 0.02 | 0.26 | 0.26 | 64 | 1013.2 |
| 20260507123004 | 64 | 258 | 0.0 | 3.0 | 0.02 | 0.26 | 0.26 | 64 | 1013.3 |
| 20260507122503 | 64 | 250 | 0.0 | 2.0 | 0.03 | 0.26 | 0.26 | 64 | 1013.4 |
| 20260507122005 | 64 | 276 | 1.0 | 3.0 | 0.03 | 0.26 | 0.26 | 64 | 1013.5 |
| 20260507121504 | 64 | 272 | 1.0 | 3.0 | 0.04 | 0.26 | 0.26 | 64 | 1013.5 |
| 20260507121003 | 64 | 273 | 1.0 | 3.0 | 0.04 | 0.26 | 0.26 | 65 | 1013.5 |
| 20260507120503 | 64 | 278 | 0.0 | 3.0 | 0.05 | 0.26 | 0.26 | 69 | 1013.5 |
| 20260507120025 | 63 | 276 | 0.0 | 3.0 | 0.04 | 0.25 | 0.25 | 69 | 1013.4 |
| 20260507115503 | 63 | 0 | 0.0 | 0.0 | 0.04 | 0.25 | 0.25 | 69 | 1013.5 |
| 20260507115003 | 63 | 219 | 0.0 | 3.0 | 0.05 | 0.25 | 0.25 | 69 | 1013.6 |
| 20260507114503 | 63 | 224 | 0.0 | 3.0 | 0.05 | 0.25 | 0.25 | 69 | 1013.6 |
| 20260507114003 | 63 | 241 | 0.0 | 2.0 | 0.05 | 0.24 | 0.24 | 69 | 1013.6 |
| 20260507113503 | 63 | 239 | 0.0 | 2.0 | 0.05 | 0.24 | 0.24 | 69 | 1013.6 |
| 20260507113004 | 63 | 225 | 0.0 | 2.0 | 0.05 | 0.24 | 0.24 | 68 | 1013.7 |
| 20260507112504 | 63 | 231 | 0.0 | 3.0 | 0.05 | 0.23 | 0.23 | 69 | 1013.8 |
| 20260507112003 | 63 | 256 | 0.0 | 4.0 | 0.06 | 0.23 | 0.23 | 68 | 1013.9 |
| 20260507111506 | 62 | 257 | 1.0 | 4.0 | 0.06 | 0.22 | 0.22 | 66 | 1013.9 |
| 20260507111004 | 63 | 240 | 0.0 | 3.0 | 0.08 | 0.22 | 0.22 | 66 | 1013.8 |
| 20260507110504 | 63 | 227 | 0.0 | 2.0 | 0.14 | 0.21 | 0.21 | 66 | 1013.8 |
| 20260507110004 | 62 | 251 | 0.0 | 2.0 | 0.19 | 0.21 | 0.21 | 66 | 1013.8 |
| 20260507105503 | 62 | 248 | 0.0 | 2.0 | 0.21 | 0.21 | 0.21 | 66 | 1014.0 |
| 20260507105004 | 62 | 229 | 0.0 | 1.0 | 0.20 | 0.20 | 0.20 | 65 | 1014.1 |
| 20260507104504 | 62 | 224 | 0.0 | 1.0 | 0.20 | 0.20 | 0.20 | 65 | 1014.0 |
| 20260507104004 | 62 | 224 | 0.0 | 2.0 | 0.20 | 0.20 | 0.20 | 66 | 1014.1 |
| 20260507103504 | 61 | 224 | 0.0 | 2.0 | 0.20 | 0.20 | 0.20 | 66 | 1014.1 |
| 20260507103004 | 61 | 0 | 0.0 | 0.0 | 0.19 | 0.19 | 0.19 | 71 | 1014.1 |
| 20260507102503 | 61 | 0 | 0.0 | 0.0 | 0.18 | 0.18 | 0.18 | 79 | 1014.0 |
| 20260507095003 | 66 | 33 | 1.0 | 8.0 | 0.00 | 0.00 | 0.00 | 80 | 1013.6 |
| 20260507094524 | 66 | 18 | 1.0 | 8.0 | 0.00 | 0.00 | 0.00 | 79 | 1013.7 |
| 20260507094024 | 66 | 340 | 0.0 | 4.0 | 0.00 | 0.00 | 0.00 | 79 | 1013.7 |
| 20260507093524 | 66 | 27 | 1.0 | 7.0 | 0.00 | 0.00 | 0.00 | 80 | 1013.7 |
| 20260507093003 | 66 | 35 | 1.0 | 7.0 | 0.00 | 0.00 | 0.00 | 80 | 1013.7 |
| 20260507092503 | 65 | 43 | 1.0 | 4.0 | 0.00 | 0.00 | 0.00 | 80 | 1013.7 |
| 20260507092003 | 65 | 36 | 2.0 | 7.0 | 0.00 | 0.00 | 0.00 | 80 | 1013.7 |
| 20260507091503 | 65 | 40 | 2.0 | 7.0 | 0.00 | 0.00 | 0.00 | 80 | 1013.8 |
| 20260507091024 | 65 | 42 | 2.0 | 6.0 | 0.00 | 0.00 | 0.00 | 79 | 1013.8 |
| 20260507090503 | 65 | 30 | 1.0 | 6.0 | 0.00 | 0.00 | 0.00 | 79 | 1013.8 |
| 20260507090003 | 65 | 26 | 1.0 | 4.0 | 0.00 | 0.00 | 0.00 | 79 | 1013.8 |
| 20260507085503 | 65 | 23 | 1.0 | 4.0 | 0.00 | 0.00 | 0.00 | 79 | 1013.8 |
| 20260507085003 | 65 | 354 | 0.0 | 2.0 | 0.00 | 0.00 | 0.00 | 79 | 1013.8 |
| 20260507084503 | 65 | 13 | 0.0 | 2.0 | 0.00 | 0.00 | 0.00 | 79 | 1013.8 |
| 20260507084003 | 65 | 340 | 0.0 | 2.0 | 0.00 | 0.00 | 0.00 | 79 | 1013.8 |
| 20260507083503 | 65 | 312 | 0.0 | 3.0 | 0.00 | 0.00 | 0.00 | 79 | 1013.8 |
| 20260507083005 | 65 | 305 | 0.0 | 3.0 | 0.00 | 0.00 | 0.00 | 79 | 1013.8 |
| 20260507082524 | 65 | 274 | 0.0 | 2.0 | 0.00 | 0.00 | 0.00 | 79 | 1013.8 |
| 20260507082004 | 64 | 274 | 0.0 | 2.0 | 0.00 | 0.00 | 0.00 | 79 | 1013.9 |
| 20260507081503 | 64 | 269 | 0.0 | 1.0 | 0.00 | 0.00 | 0.00 | 80 | 1014.0 |
| 20260507081024 | 64 | 269 | 0.0 | 1.0 | 0.00 | 0.00 | 0.00 | 80 | 1013.9 |
| 20260507080503 | 63 | 269 | 0.0 | 1.0 | 0.00 | 0.00 | 0.00 | 82 | 1014.0 |
| 20260507080003 | 63 | 265 | 0.0 | 2.0 | 0.00 | 0.00 | 0.00 | 82 | 1014.0 |
| 20260507075503 | 63 | 263 | 0.0 | 2.0 | 0.00 | 0.00 | 0.00 | 82 | 1013.9 |
| 20260507075003 | 63 | 257 | 0.0 | 1.0 | 0.00 | 0.00 | 0.00 | 80 | 1013.8 |
| 20260507074524 | 64 | 0 | 0.0 | 0.0 | 0.00 | 0.00 | 0.00 | 80 | 1013.9 |
| 20260507074003 | 64 | 0 | 0.0 | 0.0 | 0.00 | 0.00 | 0.00 | 79 | 1013.9 |
| 20260507073504 | 64 | 257 | 0.0 | 1.0 | 0.00 | 0.00 | 0.00 | 79 | 1013.9 |
| 20260507073004 | 64 | 257 | 0.0 | 1.0 | 0.00 | 0.00 | 0.00 | 79 | 1013.8 |
| 20260507072504 | 64 | 257 | 0.0 | 1.0 | 0.00 | 0.00 | 0.00 | 79 | 1013.7 |
| 20260507072003 | 64 | 254 | 0.0 | 1.0 | 0.00 | 0.00 | 0.00 | 79 | 1013.6 |
| 20260506203503 | 65 | 128 | 1.0 | 4.0 | 0.00 | 0.00 | 0.00 | 87 | 1013.9 |
| 20260506203004 | 65 | 131 | 1.0 | 5.0 | 0.00 | 0.00 | 0.00 | 87 | 1013.9 |
| 20260506202527 | 65 | 133 | 2.0 | 6.0 | 0.00 | 0.00 | 0.00 | 87 | 1013.9 |
| 20260506202024 | 65 | 130 | 2.0 | 6.0 | 0.00 | 0.00 | 0.00 | 87 | 1013.8 |
| 20260506201525 | 65 | 127 | 2.0 | 5.0 | 0.00 | 0.00 | 0.00 | 87 | 1013.7 |
| 20260506201003 | 65 | 128 | 1.0 | 5.0 | 0.00 | 0.00 | 0.00 | 87 | 1013.7 |
| 20260506200503 | 66 | 76 | 1.0 | 5.0 | 0.00 | 0.00 | 0.00 | 85 | 1013.5 |
| 20260506200004 | 65 | 42 | 1.0 | 8.0 | 0.00 | 0.00 | 0.00 | 88 | 1013.4 |
| 20260506195504 | 65 | 33 | 2.0 | 8.0 | 0.00 | 0.00 | 0.00 | 88 | 1013.4 |
| 20260506195003 | 65 | 28 | 1.0 | 6.0 | 0.00 | 0.00 | 0.00 | 87 | 1013.2 |
| 20260506194503 | 65 | 32 | 2.0 | 6.0 | 0.00 | 0.00 | 0.00 | 87 | 1013.1 |
| 20260506194003 | 65 | 32 | 2.0 | 6.0 | 0.00 | 0.00 | 0.00 | 87 | 1013.1 |
| 20260506193524 | 65 | 33 | 3.0 | 6.0 | 0.00 | 0.00 | 0.00 | 87 | 1013.1 |
| 20260506193003 | 65 | 38 | 3.0 | 6.0 | 0.00 | 0.00 | 0.00 | 85 | 1013.0 |
| 20260506192503 | 66 | 34 | 2.0 | 5.0 | 0.00 | 0.00 | 0.00 | 85 | 1013.0 |
| 20260506192004 | 66 | 28 | 1.0 | 5.0 | 0.00 | 0.00 | 0.00 | 83 | 1012.9 |
| 20260506191524 | 66 | 34 | 1.0 | 5.0 | 0.00 | 0.00 | 0.00 | 83 | 1012.8 |
| 20260506191025 | 66 | 79 | 1.0 | 4.0 | 0.00 | 0.00 | 0.00 | 82 | 1012.7 |
| 20260506190524 | 66 | 82 | 2.0 | 5.0 | 0.00 | 0.00 | 0.00 | 82 | 1012.6 |
| 20260506190024 | 67 | 82 | 2.0 | 5.0 | 0.00 | 0.00 | 0.00 | 80 | 1012.6 |
| 20260506185503 | 67 | 90 | 2.0 | 5.0 | 0.00 | 0.00 | 0.00 | 80 | 1012.8 |
| 20260506185003 | 67 | 89 | 2.0 | 8.0 | 0.00 | 0.00 | 0.00 | 80 | 1012.7 |
| 20260506184503 | 67 | 87 | 2.0 | 8.0 | 0.00 | 0.00 | 0.00 | 80 | 1012.6 |
| 20260506184003 | 67 | 87 | 2.0 | 6.0 | 0.00 | 0.00 | 0.00 | 80 | 1012.5 |
| 20260506183524 | 67 | 79 | 1.0 | 4.0 | 0.00 | 0.00 | 0.00 | 79 | 1012.7 |
| 20260506183024 | 67 | 84 | 1.0 | 4.0 | 0.00 | 0.00 | 0.00 | 79 | 1012.5 |
| 20260506182503 | 67 | 93 | 1.0 | 6.0 | 0.00 | 0.00 | 0.00 | 79 | 1012.5 |
| 20260506182003 | 68 | 88 | 1.0 | 6.0 | 0.00 | 0.00 | 0.00 | 77 | 1012.5 |
| 20260506181504 | 68 | 86 | 1.0 | 5.0 | 0.00 | 0.00 | 0.00 | 77 | 1012.5 |
| 20260506181003 | 68 | 82 | 2.0 | 8.0 | 0.00 | 0.00 | 0.00 | 77 | 1012.5 |
| 20260506180503 | 68 | 82 | 2.0 | 8.0 | 0.00 | 0.00 | 0.00 | 77 | 1012.4 |
| 20260506180003 | 68 | 80 | 2.0 | 6.0 | 0.00 | 0.00 | 0.00 | 75 | 1012.5 |
| 20260506175504 | 68 | 80 | 2.0 | 6.0 | 0.00 | 0.00 | 0.00 | 75 | 1012.3 |
| 20260506175003 | 68 | 86 | 2.0 | 6.0 | 0.00 | 0.00 | 0.00 | 77 | 1012.4 |
| 20260506174524 | 68 | 85 | 2.0 | 7.0 | 0.00 | 0.00 | 0.00 | 77 | 1012.4 |
| 20260506174004 | 68 | 86 | 2.0 | 7.0 | 0.00 | 0.00 | 0.00 | 77 | 1012.4 |
| 20260506173503 | 68 | 90 | 2.0 | 5.0 | 0.00 | 0.00 | 0.00 | 77 | 1012.5 |
| 20260506173003 | 68 | 88 | 3.0 | 8.0 | 0.00 | 0.00 | 0.00 | 75 | 1012.3 |
| 20260506172524 | 68 | 81 | 3.0 | 9.0 | 0.00 | 0.00 | 0.00 | 75 | 1012.4 |
| 20260506172003 | 68 | 77 | 3.0 | 9.0 | 0.00 | 0.00 | 0.00 | 74 | 1012.3 |
| 20260506171503 | 69 | 80 | 3.0 | 9.0 | 0.00 | 0.00 | 0.00 | 75 | 1012.2 |
| 20260506171004 | 69 | 81 | 3.0 | 8.0 | 0.00 | 0.00 | 0.00 | 75 | 1012.2 |
| 20260506170503 | 69 | 88 | 3.0 | 9.0 | 0.00 | 0.00 | 0.00 | 75 | 1012.1 |
| 20260506170024 | 69 | 89 | 4.0 | 9.0 | 0.00 | 0.00 | 0.00 | 75 | 1012.0 |
| 20260506165503 | 69 | 85 | 4.0 | 10.0 | 0.00 | 0.00 | 0.00 | 75 | 1012.1 |
| 20260506165003 | 69 | 89 | 4.0 | 10.0 | 0.00 | 0.00 | 0.00 | 75 | 1012.1 |
| 20260506164504 | 69 | 84 | 4.0 | 11.0 | 0.00 | 0.00 | 0.00 | 75 | 1012.1 |
| 20260506164004 | 69 | 79 | 4.0 | 11.0 | 0.00 | 0.00 | 0.00 | 75 | 1012.0 |
| 20260506163503 | 69 | 84 | 4.0 | 11.0 | 0.00 | 0.00 | 0.00 | 77 | 1012.0 |
| 20260506163003 | 69 | 84 | 5.0 | 12.0 | 0.00 | 0.00 | 0.00 | 75 | 1012.1 |
| 20260506162503 | 70 | 83 | 5.0 | 12.0 | 0.00 | 0.00 | 0.00 | 75 | 1012.1 |
| 20260506162003 | 70 | 82 | 4.0 | 12.0 | 0.00 | 0.00 | 0.00 | 74 | 1012.1 |
| 20260506161524 | 70 | 54 | 4.0 | 13.0 | 0.00 | 0.00 | 0.00 | 75 | 1012.1 |
| 20260506161003 | 70 | 30 | 5.0 | 13.0 | 0.00 | 0.00 | 0.00 | 77 | 1012.0 |
| 20260506160503 | 70 | 49 | 4.0 | 11.0 | 0.00 | 0.00 | 0.00 | 75 | 1012.0 |
| 20260506160003 | 70 | 70 | 3.0 | 11.0 | 0.00 | 0.00 | 0.00 | 75 | 1012.0 |
| 20260506155503 | 70 | 35 | 6.0 | 15.0 | 0.00 | 0.00 | 0.00 | 77 | 1011.8 |
| 20260506155025 | 70 | 34 | 9.0 | 15.0 | 0.00 | 0.00 | 0.00 | 77 | 1011.8 |
| 20260506154503 | 70 | 31 | 8.0 | 15.0 | 0.00 | 0.00 | 0.00 | 75 | 1011.8 |
| 20260506154003 | 71 | 31 | 7.0 | 16.0 | 0.00 | 0.00 | 0.00 | 75 | 1011.8 |
| 20260506153504 | 71 | 33 | 9.0 | 17.0 | 0.00 | 0.00 | 0.00 | 74 | 1011.7 |
| 20260506153024 | 72 | 32 | 9.0 | 17.0 | 0.00 | 0.00 | 0.00 | 72 | 1011.6 |
| 20260506152504 | 72 | 35 | 6.0 | 16.0 | 0.00 | 0.00 | 0.00 | 71 | 1011.5 |
| 20260506152004 | 72 | 34 | 6.0 | 15.0 | 0.00 | 0.00 | 0.00 | 69 | 1011.6 |
| 20260506151504 | 72 | 29 | 7.0 | 15.0 | 0.00 | 0.00 | 0.00 | 69 | 1011.6 |
| 20260506151003 | 72 | 27 | 6.0 | 14.0 | 0.00 | 0.00 | 0.00 | 68 | 1011.6 |
| 20260506150503 | 73 | 33 | 5.0 | 13.0 | 0.00 | 0.00 | 0.00 | 68 | 1011.7 |
| 20260506150003 | 73 | 34 | 7.0 | 16.0 | 0.00 | 0.00 | 0.00 | 69 | 1011.7 |
| 20260506145503 | 73 | 32 | 7.0 | 16.0 | 0.00 | 0.00 | 0.00 | 68 | 1011.7 |
| 20260506145003 | 73 | 33 | 8.0 | 18.0 | 0.00 | 0.00 | 0.00 | 66 | 1011.7 |
| 20260506144503 | 73 | 32 | 10.0 | 18.0 | 0.00 | 0.00 | 0.00 | 66 | 1011.6 |
| 20260506144003 | 73 | 32 | 9.0 | 18.0 | 0.00 | 0.00 | 0.00 | 69 | 1011.6 |
| 20260506143503 | 74 | 34 | 8.0 | 18.0 | 0.00 | 0.00 | 0.00 | 68 | 1011.8 |
| 20260506143003 | 74 | 29 | 9.0 | 18.0 | 0.00 | 0.00 | 0.00 | 68 | 1011.5 |
| 20260506142503 | 74 | 32 | 9.0 | 16.0 | 0.00 | 0.00 | 0.00 | 68 | 1011.4 |
| 20260506142024 | 74 | 36 | 9.0 | 16.0 | 0.00 | 0.00 | 0.00 | 69 | 1011.5 |
| 20260506141503 | 74 | 32 | 9.0 | 16.0 | 0.00 | 0.00 | 0.00 | 65 | 1011.5 |
| 20260506141003 | 74 | 37 | 8.0 | 16.0 | 0.00 | 0.00 | 0.00 | 62 | 1011.6 |
| 20260506140504 | 75 | 41 | 7.0 | 16.0 | 0.00 | 0.00 | 0.00 | 61 | 1011.5 |
| 20260506140004 | 76 | 37 | 7.0 | 16.0 | 0.00 | 0.00 | 0.00 | 58 | 1011.5 |
| 20260506135503 | 77 | 56 | 4.0 | 13.0 | 0.00 | 0.00 | 0.00 | 56 | 1011.4 |
| 20260506135003 | 76 | 61 | 4.0 | 12.0 | 0.00 | 0.00 | 0.00 | 58 | 1011.6 |
| 20260506134504 | 76 | 47 | 4.0 | 12.0 | 0.00 | 0.00 | 0.00 | 59 | 1011.6 |
| 20260506134024 | 77 | 45 | 4.0 | 12.0 | 0.00 | 0.00 | 0.00 | 58 | 1011.7 |
| 20260506133503 | 76 | 38 | 4.0 | 15.0 | 0.00 | 0.00 | 0.00 | 58 | 1011.7 |